Theta_e
305 305 305 306 306 307 307 308 309 309 309 308 309 308 308 309 309 310 310 309 309 309 309 309 309 309 309 309 310 310 310 310 311 311 311 311 311 313 316 318 323 324 321 318 319 318 315 317 324 338 346 343 344 346 348 349 350 351 357 360 357 361 359 359 362 358 362 359 356 357 355 358 356 355 355 353 354 353 352 351 351 352 350 349 349 349 350 350
305 306 306 306 306 307 307 309 310 310 310 309 308 308 309 309 309 310 310 309 309 309 310 309 309 309 309 309 310 310 311 313 316 316 316 317 313 313 317 318 319 322 321 317 316 317 315 317 325 339 341 339 342 343 344 347 347 349 360 362 358 363 361 356 356 355 357 357 358 357 354 357 357 355 355 356 356 354 352 350 351 351 350 350 349 350 350 349
305 306 306 306 306 306 307 309 311 311 311 310 309 309 309 309 309 309 310 309 309 309 309 310 309 309 309 309 311 310 313 321 326 327 326 323 320 317 317 318 318 319 320 318 316 317 318 321 330 339 339 337 341 343 344 346 346 348 358 364 360 358 356 352 354 354 355 355 358 358 355 356 356 354 354 356 356 354 354 352 352 351 350 349 349 350 350 349
305 305 306 306 306 306 307 309 311 312 311 311 310 309 309 309 309 309 310 310 309 310 309 309 309 309 309 310 312 310 316 329 333 332 328 322 320 319 317 317 318 318 319 320 318 320 326 330 335 340 337 336 340 343 345 344 345 346 350 358 356 351 353 352 353 353 351 352 355 357 354 355 355 354 354 355 354 353 353 352 352 351 349 349 349 350 349 348
305 306 306 306 306 306 307 309 311 312 312 312 311 311 310 309 309 309 310 310 310 310 309 309 308 309 310 311 312 311 318 330 332 330 325 321 320 319 318 315 316 318 318 318 319 326 332 333 335 338 337 337 341 343 345 344 344 345 345 348 348 349 354 354 352 352 351 351 354 355 354 355 354 355 354 354 355 354 353 352 352 350 349 348 349 349 349 347
305 306 306 306 306 307 307 308 311 312 312 312 312 312 310 310 309 309 309 310 310 310 308 308 308 309 311 312 312 313 321 328 328 327 323 322 321 319 318 315 313 316 318 317 321 331 335 333 331 333 337 339 341 344 345 344 343 344 345 344 345 348 352 353 352 351 353 354 356 355 354 354 353 355 355 355 357 355 353 352 351 350 349 349 348 349 348 345
305 306 306 306 306 306 306 308 310 312 312 312 312 312 311 310 309 309 309 309 310 309 309 308 308 310 312 313 312 315 322 325 324 323 320 320 321 319 318 316 314 313 317 317 321 333 335 331 329 329 335 339 342 343 343 343 342 343 343 343 344 346 348 351 351 352 353 354 353 353 353 353 354 357 355 354 356 354 353 352 350 350 349 349 348 349 347 344
306 305 306 306 307 307 307 308 310 312 312 312 313 312 312 311 310 310 309 309 310 309 309 308 308 310 313 313 314 318 323 324 323 322 320 320 320 321 318 317 316 312 315 317 322 333 333 329 329 330 333 339 342 342 341 342 341 341 342 342 343 347 349 350 351 351 353 353 351 353 354 353 352 355 355 354 355 353 353 352 351 350 349 348 348 348 346 344
306 305 306 307 307 307 307 308 310 311 312 312 313 313 312 311 311 310 310 309 309 309 309 308 308 310 314 313 315 323 324 321 323 322 320 320 321 321 318 317 317 315 316 317 321 329 329 328 331 332 333 336 339 341 340 341 341 339 339 341 341 345 348 350 352 352 353 353 352 353 353 353 352 352 353 353 354 353 353 352 351 350 349 348 348 347 346 344
306 306 306 307 307 307 307 308 310 311 311 311 312 313 313 312 312 311 309 309 309 309 309 308 309 312 315 313 318 327 325 319 320 320 319 320 319 320 318 315 316 316 317 317 319 324 329 333 334 333 333 334 337 337 337 338 339 337 335 336 336 338 343 348 352 352 353 353 351 354 354 354 353 354 355 353 352 353 352 352 351 350 349 348 348 348 346 344
306 306 306 306 306 307 307 308 309 310 311 311 312 313 313 312 312 311 310 309 309 309 308 308 310 314 315 314 318 325 323 319 318 318 319 319 319 320 319 316 315 316 317 317 318 326 333 335 334 332 332 334 335 336 334 335 335 333 331 330 330 331 335 343 350 352 352 352 351 352 354 353 353 354 356 353 352 353 351 352 352 350 349 348 348 348 347 345
306 306 306 306 307 307 307 307 308 310 311 311 312 313 313 313 312 311 310 309 309 309 308 310 312 316 317 316 319 321 319 319 319 317 319 319 319 321 322 319 320 319 318 318 320 329 335 335 333 331 331 332 333 334 333 333 331 331 330 329 331 330 331 336 347 352 352 352 351 350 355 355 353 354 354 352 354 353 352 352 352 351 350 348 348 349 347 345
305 306 306 306 306 307 307 307 308 310 310 311 312 312 313 313 312 311 310 310 308 308 308 310 314 318 319 320 321 320 319 319 318 318 319 319 320 322 322 322 324 322 320 318 322 331 335 333 331 328 330 330 331 333 332 332 331 332 330 327 330 330 331 332 340 350 351 352 351 351 356 355 353 352 352 352 353 352 350 351 351 352 351 349 349 350 347 346
305 305 306 306 306 307 307 307 308 309 311 312 312 313 314 313 312 312 312 310 308 309 309 310 317 322 322 322 323 322 320 319 320 319 317 318 318 320 322 323 324 325 323 319 322 331 332 329 328 328 331 332 333 333 332 332 331 332 330 328 329 326 332 334 333 344 350 351 351 352 355 354 352 351 351 353 352 351 350 350 351 351 351 349 351 351 349 347
305 305 305 306 306 306 307 307 308 310 312 312 312 314 314 313 313 314 313 310 309 310 310 314 320 323 324 325 325 325 322 320 321 319 318 317 316 318 321 323 325 326 325 320 321 326 328 327 328 332 335 334 333 333 333 332 331 331 328 328 329 325 331 336 331 336 345 351 351 349 352 352 350 350 350 353 352 350 349 350 351 350 350 350 350 351 350 349
305 305 305 305 306 306 306 307 309 311 312 313 313 314 315 315 314 316 314 309 311 313 312 318 323 323 326 326 323 325 324 321 320 317 317 317 316 317 318 322 325 325 326 324 323 327 328 330 332 335 336 335 333 332 333 332 332 333 328 325 327 325 328 332 331 331 340 350 350 347 351 352 351 350 350 353 351 350 349 348 349 349 350 350 350 350 350 350
305 305 305 305 306 306 306 308 311 313 313 314 315 315 316 317 316 318 317 313 314 315 315 319 321 322 327 326 320 323 324 319 317 316 317 316 316 316 317 320 324 326 327 327 327 329 330 332 335 337 334 333 334 332 332 330 329 332 330 326 325 326 326 327 331 331 333 345 349 348 352 353 352 351 351 352 351 351 349 348 349 347 348 349 348 349 349 350
305 305 305 306 306 306 306 310 312 314 314 316 317 316 316 317 317 318 318 317 316 318 321 321 324 326 326 322 321 320 318 317 317 316 317 316 316 316 317 319 323 326 327 328 330 330 332 334 336 338 335 333 333 332 330 329 329 328 328 326 325 325 325 326 329 330 331 337 344 349 350 352 352 351 351 351 351 351 350 349 348 348 348 347 347 348 348 349
305 305 305 306 306 307 308 310 313 315 316 317 316 316 316 315 317 318 317 316 316 320 325 324 326 330 324 320 320 316 315 317 316 316 317 317 316 317 318 319 321 325 326 329 331 330 333 336 336 337 337 334 333 332 330 329 329 329 328 327 324 323 324 325 326 328 331 332 339 347 349 351 352 351 351 351 351 351 350 350 349 348 348 347 347 347 347 347
305 306 306 306 307 308 309 311 314 316 316 317 316 316 315 314 316 317 315 315 315 317 320 318 320 323 321 319 318 315 316 316 315 316 316 317 317 317 319 320 321 325 328 330 333 332 333 338 339 338 337 333 331 332 331 330 330 330 329 328 327 324 324 326 326 325 328 332 337 345 348 350 352 351 351 350 351 351 350 351 349 350 349 347 348 347 347 347
306 307 307 308 308 309 310 312 314 317 316 317 317 317 316 314 315 316 315 315 315 314 315 315 316 316 317 318 316 315 316 315 315 316 316 316 317 317 318 320 321 326 329 329 332 333 333 337 338 336 334 333 331 332 331 331 331 330 330 328 326 326 324 326 327 325 327 332 335 342 349 350 351 351 350 351 350 350 352 351 350 351 349 348 347 347 347 347
308 309 309 309 310 311 311 312 314 317 317 317 317 317 316 315 315 315 315 315 315 314 314 315 315 315 316 316 315 315 315 315 314 315 318 318 318 317 316 319 321 326 330 330 331 333 333 335 334 332 331 332 331 332 331 330 331 330 330 327 324 325 325 325 326 326 325 328 333 342 348 349 350 351 350 351 351 351 351 352 352 351 350 349 348 347 347 347
310 311 311 311 311 312 312 313 314 317 317 317 316 316 316 315 315 315 315 315 315 314 314 315 315 316 316 316 315 315 314 315 314 316 318 318 317 317 316 318 321 324 328 331 332 331 330 330 330 329 329 331 332 331 331 331 330 330 329 326 323 324 323 322 324 326 325 325 330 340 346 348 350 351 351 351 350 351 352 352 352 351 350 350 348 348 347 347
311 312 312 312 312 312 313 313 315 317 316 316 316 315 315 315 315 315 314 314 314 315 315 315 316 317 316 315 315 315 314 315 315 317 319 319 318 318 318 319 320 323 326 330 332 331 330 329 327 327 328 330 330 330 332 331 329 328 327 325 323 324 324 323 324 326 324 324 328 338 345 348 350 351 351 351 351 351 352 352 351 351 351 350 350 349 348 348
313 313 312 313 312 313 314 314 315 317 316 317 317 316 315 315 315 314 315 316 316 317 316 316 317 317 316 315 315 315 315 314 315 317 318 318 319 319 319 319 321 325 326 327 330 330 329 328 327 327 328 328 328 329 330 328 327 326 325 325 325 325 325 324 325 324 321 321 325 338 342 343 349 351 351 350 352 352 352 352 351 351 351 350 350 350 349 349
314 313 313 313 313 313 314 314 315 316 317 317 317 317 316 315 315 314 317 320 319 319 317 315 316 316 315 315 315 315 314 315 316 317 317 318 317 317 317 318 321 324 327 326 327 329 329 328 327 326 327 328 327 327 327 327 325 322 325 326 325 325 325 324 324 322 319 321 325 333 340 340 343 348 351 350 352 353 351 352 352 351 351 351 351 350 349 349
315 314 314 314 313 314 314 314 315 315 317 318 317 317 315 315 315 314 320 325 322 318 316 314 314 314 314 314 314 315 316 316 317 317 317 317 317 316 317 319 318 320 322 321 322 326 326 326 327 327 326 327 327 326 327 327 324 323 327 326 326 326 324 324 323 320 321 323 323 326 337 342 341 345 350 351 351 354 354 352 351 351 351 351 351 351 350 350
315 314 315 315 314 314 314 314 316 316 317 317 316 315 314 315 316 314 321 327 321 316 315 313 314 314 313 314 313 315 316 315 315 317 317 317 318 317 317 318 318 318 318 316 317 321 322 321 324 325 323 324 325 326 327 327 325 326 328 326 327 325 324 326 323 320 322 320 318 322 327 331 335 345 349 350 352 352 354 353 351 351 351 351 352 351 351 350
315 315 315 315 314 314 314 314 316 316 316 316 315 314 315 316 315 315 323 325 318 315 315 314 314 315 314 314 314 314 314 314 315 317 317 318 318 317 318 318 317 317 317 316 317 318 318 320 321 322 321 322 324 326 327 326 326 327 326 327 326 324 327 329 324 322 320 317 316 319 322 320 326 342 347 347 351 352 353 352 350 350 351 352 352 352 351 350
315 315 315 315 314 314 314 315 317 317 316 316 315 315 316 316 319 323 325 322 316 314 314 314 314 314 314 314 315 315 314 314 316 317 317 318 318 317 318 318 316 317 318 317 317 317 317 317 318 320 321 323 323 324 324 326 327 326 327 326 325 327 330 332 339 332 318 320 321 319 321 319 321 336 345 345 349 352 352 351 350 351 350 351 353 352 352 351
315 315 315 314 314 314 314 315 316 316 316 316 315 316 317 318 323 328 324 317 316 315 313 314 314 314 314 314 315 315 314 315 315 316 316 316 318 316 317 319 317 319 322 320 317 318 318 317 318 319 320 321 322 323 323 325 326 326 328 325 323 329 329 329 340 333 318 324 330 322 320 318 317 330 344 347 348 349 351 351 350 350 350 351 352 351 353 351
315 315 315 315 315 315 315 315 315 316 315 315 315 315 319 323 325 326 322 316 315 315 314 315 315 315 315 314 315 314 314 315 314 315 316 315 317 317 317 318 317 317 321 319 316 319 321 320 318 317 319 320 320 324 324 326 327 324 327 323 321 325 324 324 330 327 322 328 330 323 319 319 322 330 340 346 347 347 349 349 349 350 350 350 352 352 352 352
316 315 316 316 316 316 316 315 315 315 314 316 316 315 321 328 325 321 318 314 313 314 314 315 315 315 315 314 315 316 315 315 314 315 316 315 316 317 316 316 316 317 318 317 316 318 320 321 319 317 319 319 318 320 319 323 326 324 325 324 322 322 319 321 326 323 323 327 325 321 320 321 324 327 334 342 343 345 347 348 349 350 350 350 352 352 352 353
316 317 318 318 318 316 315 315 315 315 316 315 316 319 325 327 322 316 315 314 313 315 314 314 315 316 315 314 314 316 315 314 314 315 316 315 316 318 316 315 315 316 318 319 318 316 317 320 320 317 318 318 316 317 316 319 322 323 327 326 325 325 323 324 325 321 322 324 322 320 322 322 322 327 337 333 332 342 346 346 348 349 349 349 351 352 351 353
317 318 319 320 318 316 315 315 314 315 316 314 319 325 324 320 317 315 315 314 314 314 314 313 313 314 315 315 314 315 314 315 315 314 315 316 316 316 315 314 314 314 318 320 317 315 316 317 318 315 315 316 316 316 316 319 322 325 328 324 323 327 328 326 327 327 326 323 323 324 324 327 327 333 339 325 325 337 342 346 347 347 350 349 350 352 350 351
318 318 319 319 318 315 315 315 314 315 315 316 324 329 321 314 314 315 315 315 314 314 314 314 314 313 313 315 315 315 315 315 316 314 314 315 314 314 314 313 313 313 316 318 315 314 316 317 316 315 316 316 315 315 315 318 321 324 324 322 326 330 326 322 324 329 324 319 325 327 323 327 326 329 335 325 324 331 336 346 348 345 350 349 349 352 351 351
320 319 319 317 317 316 315 315 315 316 315 317 325 328 322 314 314 314 315 315 313 314 314 314 314 313 312 313 314 315 315 315 316 314 313 315 315 313 312 313 313 313 314 317 316 314 315 316 315 315 317 316 315 316 318 317 318 320 319 320 325 326 326 325 323 324 322 320 326 325 320 324 323 327 339 332 324 326 329 340 348 346 348 349 349 350 350 351
320 321 320 318 317 316 316 316 316 316 315 319 326 327 322 315 314 314 314 313 313 313 314 313 314 313 313 313 313 313 314 315 314 314 314 316 315 312 312 312 313 312 312 315 316 315 315 315 315 316 316 315 315 317 319 318 317 318 317 319 321 321 323 326 321 320 322 321 324 324 323 325 322 325 333 328 325 327 325 335 348 348 346 348 349 350 350 351
321 322 320 317 317 317 316 317 316 316 316 323 328 324 317 314 313 313 312 313 313 313 313 313 313 313 313 313 313 313 313 312 313 315 315 315 314 313 312 312 313 312 313 314 314 315 316 315 315 316 314 314 316 317 317 316 317 317 317 317 320 320 320 323 322 322 323 323 324 328 327 329 329 327 329 328 328 328 323 331 345 347 346 348 348 349 350 349
322 323 321 316 316 317 316 316 316 316 320 325 324 318 315 314 313 313 313 313 313 313 313 313 312 313 313 313 313 313 313 312 312 314 314 313 313 313 311 312 313 312 313 313 312 315 319 318 316 315 315 314 315 316 316 315 315 316 316 317 319 321 320 321 323 322 323 325 327 327 326 329 334 334 334 336 335 333 326 328 341 346 346 348 348 349 349 349
321 324 321 315 316 317 316 317 316 317 322 324 319 315 316 316 313 313 314 313 313 313 312 312 312 313 312 313 312 312 312 313 312 313 313 312 313 314 312 311 312 312 313 314 312 313 318 320 318 317 316 315 315 316 315 316 317 316 316 317 317 319 319 320 325 325 322 324 326 326 325 327 333 335 338 339 337 337 333 328 337 345 345 347 349 348 349 349
321 324 321 316 317 317 316 319 319 318 320 321 317 316 317 315 313 313 314 313 313 313 313 312 312 313 313 313 312 312 313 312 312 312 313 312 312 313 312 312 313 313 313 314 313 312 316 319 318 317 317 315 314 315 316 317 318 316 316 317 316 316 316 317 321 324 320 321 326 326 323 326 332 333 335 338 338 339 336 331 336 345 345 348 349 348 348 349
321 322 319 315 317 316 316 320 322 320 318 317 315 315 315 314 313 313 313 313 313 312 313 313 312 313 312 312 312 312 312 313 312 313 313 313 312 311 312 313 314 313 314 315 313 312 316 318 316 317 318 314 313 316 317 316 316 315 315 315 314 314 315 315 318 322 322 323 325 325 323 326 329 329 332 337 338 340 342 339 341 345 346 347 348 348 350 348
320 320 317 315 316 316 316 317 318 318 318 316 315 314 314 313 313 313 313 313 313 312 313 312 312 313 312 312 312 312 313 313 313 313 314 314 313 312 313 313 313 314 314 315 314 312 315 318 319 320 319 315 315 321 320 315 312 313 313 313 313 313 313 315 318 322 326 325 322 323 325 326 325 325 330 337 337 340 343 341 343 346 346 348 347 347 349 348
320 319 317 315 316 316 315 315 315 317 317 317 316 314 314 314 313 313 312 312 312 313 313 313 312 312 312 312 312 312 313 314 313 314 315 315 314 314 313 313 313 313 314 314 314 313 314 316 320 321 319 316 318 321 318 313 311 311 312 312 312 312 312 314 317 320 326 325 321 322 325 324 322 322 329 336 337 339 340 339 340 342 343 348 349 349 350 350
320 319 316 316 316 314 315 314 315 316 317 319 319 316 314 314 313 313 313 312 313 313 313 313 313 313 312 312 313 313 313 313 314 315 315 315 315 314 313 314 313 313 315 314 312 315 316 316 317 319 319 317 316 316 315 313 311 311 312 311 311 312 312 313 315 318 322 322 322 327 327 322 320 320 326 336 339 338 338 337 337 338 338 342 345 346 348 350
320 319 317 317 317 316 316 315 314 315 317 319 320 316 313 314 313 314 314 312 313 313 313 313 312 313 312 313 313 313 313 314 313 314 315 314 314 313 312 313 313 314 315 312 311 316 318 316 314 315 316 314 313 312 312 312 312 311 312 312 311 313 312 312 314 316 318 320 323 330 329 321 320 324 330 337 338 336 336 336 335 335 336 337 340 342 343 345
319 319 316 317 320 319 317 315 315 315 316 319 318 314 313 314 313 313 314 313 312 313 314 314 312 312 312 313 314 314 315 315 314 314 314 314 314 314 313 313 313 312 313 312 312 315 316 315 313 311 312 312 311 311 311 311 311 311 312 312 312 313 313 312 313 314 315 318 320 325 326 322 325 334 338 338 335 332 334 335 333 334 334 334 336 337 338 339
317 318 316 317 320 319 316 315 314 314 316 320 320 316 313 314 313 313 314 313 313 312 312 313 313 312 312 313 315 315 315 316 316 315 314 314 315 315 315 314 314 312 312 312 312 312 314 317 315 311 312 312 311 312 311 311 311 311 312 312 312 313 313 312 313 313 314 316 318 320 322 324 331 338 341 339 334 330 331 332 332 332 333 333 333 335 336 336
317 318 317 318 320 318 314 315 315 315 316 319 321 317 314 314 314 313 313 314 314 313 313 313 313 313 313 314 315 315 314 315 316 315 315 315 315 316 316 315 314 312 312 313 313 312 313 317 316 312 313 313 312 312 312 311 311 311 311 312 312 312 314 314 313 314 316 319 319 317 322 331 336 337 337 336 332 329 330 330 330 330 331 331 331 332 333 334
316 318 317 320 324 321 315 314 314 316 317 316 318 318 315 315 315 314 314 313 313 314 313 313 314 314 314 315 316 315 313 313 314 314 313 314 314 314 315 314 313 312 313 313 314 314 316 317 316 314 314 314 312 311 312 310 310 311 311 312 312 312 316 318 316 320 324 322 319 320 327 336 339 334 333 332 331 330 329 329 329 329 329 330 330 330 331 331
316 318 316 319 324 320 314 315 316 317 316 314 316 316 314 314 313 314 316 315 312 313 313 313 313 315 316 317 315 314 313 313 313 313 313 313 313 312 313 313 313 313 314 313 313 316 319 318 317 315 314 315 312 310 312 312 312 314 315 314 313 313 317 319 320 326 330 325 324 331 336 337 336 334 332 330 330 330 329 328 328 327 327 328 328 329 330 330
Wind_Speed
18 18 18 19 19 19 19 19 19 18 18 17 16 15 14 13 12 12 13 14 14 14 13 13 13 14 14 14 14 14 13 13 11 7 6 4 8 11 14 16 15 12 10 14 16 15 14 15 18 19 16 12 12 14 13 13 14 10 4 2 2 2 3 3 3 3 3 3 5 6 5 5 7 7 10 11 10 10 8 13 18 15 19 27 33 42 41 38
17 17 18 18 19 19 19 19 19 19 18 17 17 16 15 14 13 12 12 13 14 14 14 13 13 13 13 14 14 13 14 12 7 3 2 2 4 9 13 16 17 15 12 14 17 17 16 16 18 18 14 11 11 12 10 10 13 10 3 2 4 4 4 3 7 7 6 6 6 8 7 5 6 8 11 8 7 10 7 14 18 21 23 28 38 42 38 39
17 17 17 17 18 18 18 18 18 18 18 18 17 17 17 16 15 14 13 13 14 14 14 14 13 13 12 13 14 13 13 8 5 7 8 8 4 4 10 13 16 18 15 13 15 16 14 13 16 18 12 10 13 13 9 9 10 12 6 1 6 6 4 4 12 12 11 15 11 8 8 5 5 10 12 7 8 8 8 16 22 24 28 35 40 40 40 39
18 17 17 17 17 18 18 18 18 18 18 18 18 18 18 17 17 15 13 13 13 14 14 13 12 12 12 13 13 12 9 5 5 7 8 9 7 2 6 12 14 17 17 14 14 14 12 10 13 16 12 10 14 13 11 12 8 8 8 4 7 6 5 6 13 17 16 21 16 11 10 6 7 11 12 10 11 5 13 22 30 32 37 41 41 40 41 37
18 18 18 18 17 18 18 17 17 17 18 18 18 18 18 18 17 16 14 13 13 14 14 12 12 12 11 11 12 11 6 3 2 5 6 8 7 6 0 10 14 15 16 16 17 16 15 13 13 14 12 9 11 9 11 19 13 5 8 13 12 7 3 5 15 19 17 20 16 13 9 8 10 9 12 14 9 8 15 26 34 40 43 42 42 43 39 36
19 18 18 18 18 18 18 17 17 17 18 17 18 18 18 18 18 17 15 14 14 14 13 11 11 11 10 11 12 9 4 1 2 5 5 7 7 6 3 6 13 13 15 18 20 19 18 16 11 12 11 7 9 8 11 19 16 7 7 14 16 13 7 11 22 20 19 20 15 13 11 12 11 6 12 15 11 11 17 27 35 41 43 41 42 43 38 36
18 18 18 18 18 19 18 18 18 18 18 18 18 18 18 18 18 17 15 14 14 14 12 10 11 11 10 11 10 7 3 1 3 5 5 8 7 5 2 4 10 13 16 19 23 23 20 16 12 12 9 6 8 10 13 15 14 10 6 10 13 16 16 17 27 22 21 22 17 17 13 13 12 6 10 13 14 14 19 30 37 39 40 41 41 39 36 36
18 18 18 18 19 19 19 19 19 19 19 19 19 18 17 17 18 17 15 14 13 14 12 9 10 10 10 10 7 5 2 3 3 4 6 9 8 5 2 4 7 11 15 19 25 25 21 17 16 14 7 7 9 9 13 11 10 10 9 13 13 14 19 19 29 26 22 19 19 20 12 14 18 11 10 12 14 18 24 33 38 38 39 41 40 36 35 36
19 18 18 18 19 20 20 20 20 20 20 20 20 18 17 17 17 17 15 13 13 13 11 9 10 9 10 8 5 3 3 5 2 2 7 10 8 8 6 7 8 10 13 18 24 24 21 19 20 17 8 11 13 10 11 7 5 9 10 15 13 12 15 16 26 26 22 20 21 16 8 14 19 10 7 13 19 24 29 35 38 39 38 39 38 33 36 36
19 19 18 18 18 19 19 20 20 21 21 20 20 19 17 16 17 16 15 13 12 10 9 9 9 8 9 5 2 0 3 4 3 4 8 9 8 8 6 8 12 11 12 17 24 26 23 21 21 16 9 12 12 10 10 7 7 12 13 13 11 11 14 14 23 25 23 22 23 15 7 12 14 7 5 15 23 27 30 34 38 39 37 39 37 31 36 37
19 19 19 19 19 19 19 19 19 20 21 21 20 19 17 16 16 15 14 13 10 8 8 9 8 8 9 5 2 2 3 2 3 6 7 7 6 6 5 5 11 12 13 17 24 27 24 22 17 10 7 8 8 10 11 11 12 16 16 12 10 8 11 13 20 26 20 16 25 18 7 8 9 4 4 17 28 28 32 35 37 38 36 39 36 30 35 38
18 18 19 19 19 19 19 19 18 19 20 21 20 18 17 16 15 14 13 12 9 8 8 7 6 7 9 7 5 2 4 2 3 4 5 5 4 4 6 2 5 8 12 18 24 27 24 19 13 9 9 7 7 6 10 14 15 16 14 7 7 5 5 9 15 26 18 12 24 16 7 3 5 7 7 22 31 30 35 36 36 37 36 40 35 30 35 38
18 18 18 19 20 20 20 19 19 19 19 19 18 17 16 15 13 12 12 10 8 8 7 6 6 7 8 6 3 3 4 2 4 2 1 1 2 2 5 3 1 0 6 17 24 25 23 16 11 14 17 12 9 8 12 17 15 13 10 3 3 5 2 7 11 23 16 15 28 17 5 5 6 11 13 26 32 31 36 34 35 35 36 40 33 31 35 38
18 17 18 19 19 20 20 19 19 19 18 18 17 16 15 13 11 11 11 8 7 8 6 5 4 7 8 5 3 1 0 3 5 4 4 3 2 2 3 3 2 2 2 12 23 24 22 15 13 18 20 16 12 12 12 11 8 6 6 4 2 0 3 7 6 19 12 17 35 18 2 7 8 14 18 29 32 31 35 33 35 34 35 40 33 33 37 37
18 17 18 18 19 20 19 19 19 19 18 17 14 13 12 11 10 9 9 7 7 7 5 4 3 6 10 6 4 4 4 3 1 1 2 1 2 3 3 1 2 3 3 7 18 21 17 12 14 16 16 15 10 7 5 4 4 1 1 5 2 2 4 7 4 12 9 13 29 15 1 7 10 15 23 32 32 30 34 33 35 34 35 39 33 34 38 37
18 18 18 18 19 19 19 18 18 19 17 14 12 10 9 10 10 8 7 6 6 7 4 4 3 5 8 5 2 2 5 5 2 2 2 3 4 4 4 4 2 3 4 5 11 12 10 10 13 14 13 10 4 2 3 4 4 2 1 3 3 2 3 4 7 8 12 12 17 11 3 5 8 17 29 33 31 30 32 32 34 34 36 38 35 36 38 36
17 17 18 18 19 18 18 17 18 18 14 11 10 9 7 8 10 9 7 6 7 8 5 4 6 7 5 2 0 2 4 3 2 1 2 4 6 4 3 6 7 5 6 6 8 10 10 10 8 9 9 5 1 2 1 3 4 4 1 3 4 4 3 3 6 8 11 14 13 11 5 5 9 20 30 33 32 30 29 30 33 35 36 36 36 37 37 36
18 18 18 19 18 17 16 16 17 15 10 9 10 9 6 7 9 7 3 5 7 6 4 4 5 4 2 1 4 7 5 2 3 3 4 3 4 5 3 6 7 7 7 6 9 10 9 7 2 2 3 3 2 3 3 3 3 2 3 3 4 3 3 5 5 4 6 11 13 11 6 8 13 19 26 32 34 29 27 29 32 35 36 34 35 38 36 36
18 19 19 19 18 16 14 14 14 12 9 9 10 9 7 6 4 1 3 8 8 4 2 4 5 2 5 8 11 10 7 3 4 6 5 2 1 4 5 4 5 10 9 3 5 8 6 4 1 1 2 4 5 5 5 3 3 4 5 4 4 5 5 7 8 6 5 7 11 12 8 10 15 17 20 29 34 30 27 28 29 34 34 32 33 37 36 36
20 20 19 19 18 16 13 12 11 11 10 10 12 12 11 10 5 3 11 16 12 8 9 10 11 14 16 16 14 12 9 5 6 6 5 3 1 3 6 3 2 8 7 4 4 6 7 3 2 4 4 5 5 6 6 4 7 8 7 5 5 6 7 7 9 8 4 6 9 12 12 13 18 17 18 28 31 25 25 26 26 31 32 32 34 35 36 36
20 20 19 19 18 15 13 11 9 10 11 11 14 12 10 10 5 6 15 19 15 11 12 14 15 19 19 17 15 13 11 6 5 5 4 6 2 2 5 3 2 1 4 6 5 4 7 5 4 7 6 6 6 6 6 7 9 9 7 6 6 6 9 11 11 10 5 5 9 12 14 14 18 18 19 26 24 21 26 28 28 32 32 33 36 36 37 36
20 19 19 18 17 16 13 10 8 8 9 10 12 10 6 8 5 7 11 14 15 11 11 14 15 17 16 14 12 10 8 5 5 4 7 9 5 3 5 4 2 2 3 6 4 1 3 4 7 8 7 6 7 7 7 8 9 8 6 5 6 6 7 11 10 7 4 3 7 12 14 15 19 19 19 24 23 24 34 36 35 37 34 33 38 38 37 36
20 20 20 18 17 16 12 10 7 7 8 9 11 10 7 7 7 12 12 9 13 12 10 12 13 14 14 11 10 9 7 4 4 5 9 8 6 6 7 5 4 4 3 4 4 3 2 5 9 11 8 8 9 9 8 8 6 6 6 4 6 7 5 7 6 5 5 5 6 13 12 10 14 15 16 25 28 27 34 39 39 40 38 37 40 41 39 38
21 21 21 19 18 16 12 9 6 7 7 8 11 11 9 9 10 16 12 4 7 9 7 11 11 12 12 8 7 6 4 4 5 7 11 7 4 5 5 5 4 3 4 6 7 6 5 8 12 11 9 9 8 8 8 6 5 6 7 6 7 10 8 8 7 7 9 9 6 9 7 3 9 13 13 17 21 22 29 32 31 35 38 36 37 39 40 41
22 21 22 21 19 16 13 8 5 7 5 5 10 8 7 9 11 14 10 1 4 5 3 7 9 8 7 4 6 5 1 5 4 7 10 5 4 4 1 2 3 3 5 7 8 6 6 13 13 8 7 9 8 7 7 6 4 5 7 9 11 12 12 12 9 6 5 6 5 4 5 2 7 14 15 13 13 16 22 25 26 31 34 33 33 36 40 42
22 21 21 21 19 16 12 7 5 5 1 2 5 5 6 7 8 11 7 2 2 3 1 3 5 5 5 3 4 2 2 3 2 6 8 4 3 3 0 1 1 3 5 4 4 3 5 13 12 7 8 10 8 8 9 7 4 5 6 8 11 12 12 12 9 5 2 4 4 4 5 3 5 10 13 15 16 16 17 18 23 30 32 34 35 36 39 41
21 20 20 20 18 17 12 7 5 4 2 3 6 7 8 5 7 10 4 3 2 1 1 2 3 3 4 3 4 4 1 3 2 5 6 4 1 2 2 2 2 2 2 2 0 3 3 7 9 9 8 7 7 7 9 8 5 5 6 8 10 9 9 10 7 5 4 4 2 3 5 4 4 9 12 14 17 16 15 16 19 26 32 35 36 37 41 43
20 18 19 18 15 14 13 7 4 4 3 5 8 9 6 3 7 7 1 3 1 1 1 1 2 3 3 2 3 5 2 3 1 2 4 3 1 3 2 3 3 3 3 2 1 5 4 3 4 4 3 3 5 7 10 10 7 7 9 9 8 8 9 7 5 6 5 5 4 1 3 3 3 9 12 13 14 14 17 18 17 24 33 36 37 37 41 45
18 17 18 16 11 11 11 6 3 3 3 6 8 6 5 6 7 3 3 3 1 1 1 2 2 3 4 2 4 7 4 4 3 4 7 6 3 3 2 4 4 3 3 3 2 6 4 4 5 3 2 4 5 7 10 10 8 8 9 10 9 7 7 3 1 3 2 4 5 3 2 3 3 6 10 10 10 13 16 16 17 25 33 37 37 37 39 43
16 15 16 13 8 8 6 3 4 4 6 9 9 6 6 6 3 2 2 1 2 1 2 3 1 2 4 1 2 5 3 4 5 7 7 4 4 4 2 2 2 2 3 0 1 7 7 7 6 3 4 5 5 6 7 9 10 8 6 7 8 6 4 2 2 2 1 4 6 5 3 5 1 5 8 10 14 17 15 13 15 21 28 34 36 37 39 41
15 13 11 8 7 6 5 2 5 6 8 9 9 9 8 4 1 4 3 1 1 1 1 1 1 2 4 2 2 3 1 1 2 4 2 1 1 3 4 2 2 3 4 4 3 6 9 6 2 3 7 7 6 6 7 6 8 7 3 2 4 5 4 3 4 3 1 5 6 3 1 5 2 4 6 12 17 19 18 16 17 19 26 33 37 39 41 43
13 8 6 7 9 9 8 5 4 5 5 6 9 10 6 2 2 2 1 3 2 1 2 2 2 1 2 1 1 2 1 1 2 3 2 2 4 5 6 3 2 2 2 3 2 5 6 4 4 4 5 6 6 5 7 5 1 4 3 2 1 3 2 2 3 1 3 5 6 2 5 2 4 5 7 12 14 15 17 20 23 26 30 35 38 41 42 44
9 5 6 7 8 8 9 9 5 2 1 5 10 9 3 4 3 1 2 3 1 1 2 1 2 2 3 3 2 0 1 3 3 2 3 4 5 5 8 8 5 2 1 0 2 4 4 5 7 3 2 9 9 4 4 6 4 2 4 4 3 2 0 2 3 2 2 6 7 2 3 2 4 5 8 13 13 16 20 23 28 34 38 41 44 45 44 44
6 6 7 6 7 8 8 8 7 4 4 9 10 6 4 4 2 2 3 3 2 3 4 4 5 3 4 2 1 1 3 3 3 4 5 6 4 4 7 10 10 4 1 3 2 2 2 3 5 5 4 8 9 5 3 6 5 4 5 5 4 4 4 2 2 2 2 5 6 2 2 3 3 5 8 12 16 23 29 29 28 33 39 43 45 44 43 43
4 4 8 7 6 7 7 8 8 6 8 11 8 4 4 4 2 3 3 3 3 4 7 7 4 2 3 3 0 4 4 1 3 6 7 6 5 5 5 7 10 7 2 3 1 2 1 3 4 5 3 5 9 9 8 6 4 4 2 4 2 4 4 3 3 4 3 2 4 1 1 4 4 6 7 7 12 19 28 32 28 29 35 35 33 35 38 41
6 4 7 8 7 7 8 8 6 6 9 10 6 4 3 2 1 2 3 4 3 4 7 7 6 4 3 3 2 4 4 2 2 4 5 6 7 8 6 4 8 8 4 3 1 2 2 4 6 7 3 6 12 14 6 7 5 4 2 1 5 5 5 3 2 1 3 1 4 3 3 4 3 6 9 5 6 10 17 24 26 31 35 31 29 34 38 40
8 6 7 9 8 9 10 8 7 6 7 7 5 1 0 1 2 2 3 6 5 5 4 4 5 5 3 4 4 4 3 2 3 3 2 3 5 7 6 5 9 10 5 2 1 1 0 3 5 5 3 9 21 17 2 9 9 2 2 6 7 2 4 4 0 2 2 2 4 4 3 4 3 3 8 9 8 7 10 17 23 29 32 32 32 37 41 43
10 7 6 8 8 9 9 9 7 5 5 5 3 2 1 2 4 3 4 7 5 5 5 3 3 4 5 4 4 6 6 3 3 3 3 3 3 5 5 5 9 14 13 8 2 0 1 3 4 5 5 10 18 13 4 11 15 6 2 7 6 1 1 1 1 1 0 1 3 5 4 3 2 4 7 9 11 12 9 14 21 23 25 31 35 40 44 45
14 7 4 7 7 6 6 7 7 4 3 3 1 2 1 2 3 6 10 9 4 4 4 3 4 4 4 4 3 6 7 5 4 3 3 3 1 4 6 4 6 12 16 13 4 3 3 2 4 3 7 7 8 6 4 10 15 11 8 8 5 1 1 2 2 3 2 2 2 3 4 3 4 4 7 10 11 13 13 10 16 20 26 34 38 41 43 45
12 6 5 7 5 3 3 4 7 3 2 0 1 1 2 2 4 10 17 14 5 3 3 2 5 5 3 6 5 5 5 5 6 5 3 3 2 3 7 5 4 7 11 13 8 4 4 3 4 5 7 5 2 4 5 5 8 10 8 7 7 6 4 3 3 2 2 3 2 1 2 3 4 6 10 14 14 12 15 12 10 18 31 39 42 44 45 46
10 5 5 8 4 2 5 6 5 0 2 1 1 1 3 5 7 13 22 20 10 8 7 4 5 5 4 6 5 4 4 4 5 5 3 3 3 1 6 7 5 5 6 8 7 5 3 1 2 5 6 3 2 3 5 6 4 2 4 6 7 7 6 4 4 3 1 1 3 3 4 2 4 8 11 15 16 14 14 13 11 19 31 40 43 46 47 47
11 4 5 9 4 5 6 5 3 2 1 1 2 3 6 7 8 12 21 21 13 11 11 6 4 4 4 4 4 4 4 4 5 5 2 4 4 2 6 11 9 6 5 2 2 4 3 1 2 4 5 5 6 5 4 4 2 4 7 7 7 6 6 4 4 5 4 4 2 2 4 3 3 9 12 14 17 19 18 8 10 22 33 41 43 44 45 45
11 7 10 14 9 6 5 4 5 2 2 4 6 9 12 9 7 11 15 15 10 9 9 6 5 5 4 4 5 6 6 5 6 5 2 3 5 5 8 11 10 6 4 1 3 7 5 2 3 5 5 6 5 2 2 8 8 5 5 7 7 7 7 5 4 4 3 4 4 3 3 4 5 10 14 18 22 24 27 22 9 4 16 26 30 33 38 43
10 9 13 18 16 11 6 2 3 4 4 7 8 9 12 11 9 9 9 10 9 5 4 5 7 8 5 5 7 9 8 5 6 7 5 3 5 10 13 11 8 5 4 2 1 5 4 2 3 4 4 6 6 4 5 8 9 4 4 7 8 9 11 8 4 3 1 3 5 3 3 5 7 9 12 18 21 21 26 31 29 23 16 12 10 13 22 30
9 7 11 16 19 20 13 5 4 4 4 7 7 8 7 7 9 11 10 10 11 7 4 5 9 10 8 7 8 10 9 6 4 5 5 4 4 11 18 15 9 7 7 8 6 4 2 2 3 4 2 2 3 3 4 7 7 5 5 9 10 11 13 8 3 4 3 3 5 2 3 7 11 11 11 16 18 17 23 32 35 33 29 26 25 19 13 12
6 4 7 12 16 20 17 14 13 7 3 4 4 7 8 4 6 13 13 10 12 13 9 10 13 11 9 9 8 8 8 6 4 3 3 4 3 7 16 17 13 9 9 12 11 4 2 2 2 5 4 4 4 3 4 6 8 8 9 11 10 11 12 6 2 3 4 5 5 2 4 8 15 15 11 12 16 16 19 26 31 33 33 31 30 31 30 24
5 2 4 6 8 12 13 15 16 9 5 6 3 4 10 7 4 12 14 11 14 15 10 12 15 10 8 9 5 5 7 6 7 6 4 5 3 6 15 17 14 13 11 9 9 4 3 3 2 2 3 4 4 4 5 6 9 11 12 11 10 11 12 7 3 5 4 5 5 5 5 9 13 14 10 9 13 13 14 21 28 30 31 31 31 34 37 35
5 2 5 6 2 4 6 8 13 12 10 9 5 3 9 10 6 7 10 10 16 17 9 8 13 11 9 8 4 4 8 6 6 7 5 5 4 4 11 11 9 16 14 8 7 6 3 1 3 2 4 5 4 5 6 6 7 9 11 12 11 11 11 8 7 8 5 3 7 8 9 9 9 10 8 7 11 12 12 20 27 28 29 31 32 33 35 35
7 3 6 9 4 3 6 9 14 14 10 6 5 5 6 7 6 6 7 6 8 12 10 7 8 10 10 9 6 6 6 4 4 5 5 6 6 4 5 4 6 16 16 7 5 6 3 0 3 4 5 6 7 8 8 7 7 8 10 13 12 11 12 11 9 10 8 7 9 9 9 8 7 6 4 5 10 13 16 23 29 28 28 31 31 30 30 31
10 6 7 9 7 8 13 14 11 9 7 6 4 4 5 6 5 5 8 7 4 5 8 8 7 8 8 9 8 6 4 3 2 4 4 5 5 4 3 2 5 12 12 5 4 4 3 1 3 4 4 6 6 7 9 9 9 8 9 11 12 10 10 11 10 8 7 7 8 8 7 5 6 6 6 8 12 15 18 24 26 26 28 31 29 26 27 29
9 10 9 6 5 9 11 11 7 5 4 5 3 3 5 6 5 4 6 10 10 6 6 7 6 6 6 8 8 5 7 7 6 8 8 6 6 5 3 4 6 8 6 4 3 2 2 1 2 3 2 4 4 6 9 9 10 9 6 7 10 8 7 9 8 5 5 6 7 6 4 3 6 8 8 9 12 16 17 19 22 23 27 29 27 24 26 28
6 8 10 6 4 8 7 6 6 5 4 4 5 5 6 7 9 8 5 8 13 13 11 10 9 6 5 6 7 8 12 13 13 14 14 12 13 13 13 12 9 6 2 2 3 2 2 2 0 2 0 3 3 5 7 8 8 6 4 4 6 8 8 9 8 6 6 5 3 1 1 3 5 6 6 6 9 13 15 19 22 23 25 25 24 24 26 28
Wind_Direction
347 347 347 348 350 353 352 351 351 350 348 345 342 340 338 335 333 334 335 335 332 332 333 333 331 330 329 327 329 335 338 334 326 304 280 245 209 197 186 184 176 179 178 171 176 181 182 179 178 179 180 196 224 237 229 230 229 211 198 222 243 238 224 230 179 160 141 143 158 159 167 138 128 151 153 169 181 138 149 180 164 152 147 152 154 151 150 151
345 344 345 347 348 351 352 350 350 348 346 344 340 338 337 335 332 332 333 332 331 330 331 333 332 330 329 327 328 337 340 335 340 7 36 76 193 197 190 188 179 182 183 175 180 183 180 178 179 179 187 208 225 233 229 224 215 199 171 194 227 221 213 187 142 148 152 146 147 159 166 144 137 157 155 162 159 127 154 180 153 135 139 148 153 153 154 156
346 344 344 346 347 350 350 350 349 347 345 343 340 337 336 334 332 332 333 332 330 329 329 332 332 331 331 327 332 343 348 359 58 75 67 59 64 195 201 192 179 185 190 179 184 187 174 172 177 177 191 222 232 237 239 235 213 194 181 196 239 223 234 191 151 166 168 149 146 158 160 164 166 157 159 152 121 133 193 170 148 143 145 150 154 157 158 158
346 345 344 345 347 348 349 349 347 346 344 342 339 336 334 333 332 331 333 332 330 330 330 332 333 333 333 330 338 347 358 38 84 80 56 41 41 39 209 197 180 182 187 182 188 184 162 165 177 178 191 225 237 243 246 242 229 191 185 214 239 199 232 236 162 168 168 151 154 154 144 180 190 160 164 147 120 184 213 169 155 154 152 154 157 160 161 161
347 345 343 344 345 347 347 348 346 345 344 341 339 336 333 331 330 330 332 332 329 330 330 332 334 334 334 334 342 351 14 52 86 85 46 19 22 19 285 201 187 177 180 181 185 180 170 181 189 191 201 226 238 241 243 236 232 228 217 226 231 195 199 208 162 165 162 148 148 149 147 183 180 172 189 173 155 199 192 169 161 156 155 159 160 163 164 162
346 344 342 343 343 345 346 347 346 344 343 341 338 335 333 330 327 327 329 330 328 329 331 331 333 335 335 336 344 356 24 85 99 77 26 357 356 354 8 199 192 179 178 181 183 182 184 191 198 209 211 225 232 228 241 234 226 242 248 235 233 221 214 165 163 166 155 146 148 161 165 166 163 193 204 191 195 187 170 168 162 157 158 160 162 165 165 164
346 344 342 341 341 343 344 346 345 343 342 340 337 334 332 329 326 325 325 327 325 327 329 329 330 332 333 336 348 352 355 82 83 60 13 349 349 344 360 189 188 184 184 185 185 186 193 197 203 218 219 228 233 234 247 245 231 237 256 256 245 224 219 176 162 164 160 158 162 168 162 161 169 189 196 193 196 176 160 166 162 159 160 160 164 167 166 164
345 344 342 340 340 342 343 344 344 342 340 338 336 333 329 327 325 322 322 323 322 324 327 329 327 328 333 339 353 350 13 83 65 48 4 340 346 354 309 207 185 191 191 189 188 188 194 201 207 215 224 235 229 231 243 252 245 240 243 255 257 227 216 176 158 163 161 162 163 162 160 175 179 173 184 190 177 161 154 161 162 160 162 163 166 169 168 163
344 344 342 340 340 341 342 342 341 340 338 335 334 332 328 326 323 321 320 321 321 324 328 329 323 326 335 340 351 360 101 91 57 7 340 324 328 339 301 227 202 199 196 194 192 192 198 204 208 206 222 250 244 246 244 241 244 246 242 244 249 236 223 169 154 160 155 161 164 158 165 182 182 167 179 189 164 151 153 156 159 161 164 167 169 170 170 166
342 343 342 341 340 340 341 340 339 337 334 332 331 329 326 324 322 318 316 320 321 325 330 327 322 326 336 344 351 46 122 82 26 313 311 306 313 333 305 226 210 206 199 197 195 198 200 198 202 209 245 266 256 263 256 239 256 269 272 265 255 249 238 185 158 156 150 164 170 163 176 174 176 174 192 196 171 152 154 156 158 163 167 171 172 171 171 170
341 342 341 340 339 339 339 338 337 335 331 329 328 327 325 323 321 314 313 318 319 326 330 322 319 326 337 332 262 179 127 58 357 313 290 285 302 341 341 230 210 212 204 200 199 199 197 194 201 228 271 276 266 270 267 261 275 286 290 286 271 267 248 199 165 160 148 165 179 168 152 144 152 203 216 182 172 161 160 159 160 165 169 172 175 172 172 173
339 340 340 339 338 337 337 336 335 334 331 326 324 324 320 319 318 310 311 315 314 320 326 323 318 328 337 308 259 113 64 23 9 312 268 273 294 353 359 326 194 213 207 200 199 196 196 199 210 240 262 285 296 285 284 293 310 312 305 287 265 299 260 210 175 168 154 162 181 155 102 144 162 217 200 160 163 164 161 161 163 167 169 174 177 173 171 174
338 339 340 338 336 335 336 336 334 334 331 325 322 321 316 315 313 306 308 310 307 314 325 324 317 328 330 295 234 83 48 50 78 89 192 327 299 316 338 329 105 173 214 201 195 193 198 207 226 251 266 276 282 284 296 308 324 321 312 290 259 341 301 232 176 168 164 162 170 148 102 221 210 219 194 157 159 159 158 161 165 168 171 175 179 174 171 174
337 337 338 337 335 334 335 335 334 334 331 326 322 316 311 312 308 304 307 302 297 312 334 334 318 327 313 271 183 158 185 106 101 121 120 56 355 269 298 311 302 317 281 204 194 196 205 224 255 269 274 265 265 290 300 310 321 311 311 323 260 127 271 268 171 162 172 171 170 158 127 204 206 221 193 165 164 158 158 164 166 169 172 176 181 176 174 177
336 335 337 337 335 334 336 335 334 334 331 328 323 313 310 311 305 307 309 294 298 318 346 342 312 321 310 279 180 200 224 178 154 160 143 30 327 253 232 234 286 276 291 208 199 203 214 244 271 274 272 263 275 306 317 321 316 318 307 318 316 182 251 285 246 175 166 178 180 170 99 191 199 209 187 171 172 164 162 166 169 173 174 178 183 179 178 180
336 335 336 337 336 335 336 335 333 333 331 330 326 316 312 307 300 312 313 289 307 320 330 328 286 307 311 286 165 193 242 226 266 327 202 256 269 248 246 221 224 249 245 210 203 215 236 265 277 275 266 260 276 311 345 337 314 2 141 268 287 231 258 289 282 223 161 159 195 194 145 183 187 182 175 172 173 167 165 169 171 175 176 180 184 181 180 182
339 337 338 337 337 337 337 336 333 333 335 336 334 329 323 306 297 305 302 288 313 318 311 286 270 290 289 241 84 326 290 219 191 308 248 266 251 239 258 217 196 200 221 229 234 247 259 260 268 274 253 226 165 152 313 297 277 326 348 254 261 226 230 229 283 262 173 156 197 211 169 168 165 163 168 171 174 169 168 172 172 174 176 180 182 183 183 183
343 340 340 337 338 338 338 336 332 335 346 351 349 348 342 315 303 304 306 320 325 319 308 253 247 296 267 231 337 337 334 219 193 303 310 298 244 226 220 210 194 180 196 227 238 244 252 250 239 292 252 202 197 170 177 226 217 259 264 264 281 271 252 232 256 271 187 172 192 198 173 164 160 161 167 172 174 174 174 174 173 175 178 179 180 182 185 185
345 342 341 338 337 339 338 335 330 338 359 10 8 4 1 349 330 329 345 330 320 307 296 233 218 273 285 291 315 333 336 269 263 298 286 308 313 211 199 211 205 180 175 194 230 225 226 249 243 273 269 211 220 201 181 233 251 251 258 256 281 286 268 248 257 257 204 191 195 188 173 163 163 166 170 173 174 176 177 176 173 176 181 182 180 183 187 186
343 341 341 337 337 340 338 333 326 332 351 5 11 13 16 17 18 340 328 318 305 292 283 263 258 274 284 293 303 316 316 279 285 296 261 253 58 171 199 218 204 179 168 152 204 211 198 220 246 223 235 216 229 227 199 237 277 281 283 281 286 280 275 267 270 270 215 188 207 190 170 165 169 173 174 174 174 173 175 177 175 176 181 184 183 185 188 187
341 339 340 337 336 339 337 329 317 322 340 354 3 10 18 19 14 331 331 318 306 299 281 269 267 269 274 285 293 302 304 286 289 292 224 217 197 122 197 203 64 193 198 179 188 205 188 203 239 227 235 233 235 236 218 230 252 266 273 280 287 273 275 275 273 279 247 202 221 190 165 171 176 176 176 174 174 174 174 176 179 180 181 183 184 186 188 187
338 336 337 335 333 337 336 326 307 309 332 350 360 6 8 11 353 320 331 315 301 304 286 268 261 259 262 272 279 280 281 278 290 263 188 190 192 162 184 176 143 231 225 197 185 170 189 221 238 230 233 243 251 245 230 231 235 249 256 265 276 266 280 279 272 279 259 231 226 187 169 181 182 175 175 177 178 178 177 178 182 183 181 181 185 186 187 187
334 332 333 334 331 334 335 322 297 288 320 353 9 15 10 358 330 319 323 299 291 301 284 253 243 252 261 266 261 248 239 240 276 246 197 185 185 180 172 164 187 210 205 199 183 158 192 243 236 227 225 227 243 245 234 237 234 237 240 244 259 256 266 273 280 319 317 305 239 192 174 180 181 173 178 184 182 177 180 182 183 184 182 181 184 186 186 186
330 329 329 331 332 333 334 321 288 274 308 6 25 22 13 351 332 328 326 286 284 299 264 230 233 256 267 264 242 218 207 245 257 205 190 187 173 173 174 177 189 211 211 198 196 194 203 235 231 222 227 227 235 246 239 238 242 239 232 227 248 255 249 251 277 316 322 309 254 183 154 168 176 175 185 186 181 178 181 183 183 187 186 182 182 184 186 188
329 328 325 329 331 331 334 325 277 269 292 35 30 16 7 351 340 338 338 325 285 296 238 212 229 251 251 236 224 212 252 279 259 193 190 186 166 167 176 206 189 217 226 201 197 207 223 238 236 214 221 235 239 248 240 225 239 257 237 223 235 250 253 256 271 303 329 311 288 114 107 241 196 184 186 179 178 182 181 182 185 188 188 184 183 184 186 189
331 329 324 326 330 331 335 333 297 285 272 45 7 349 340 333 332 335 342 33 323 285 144 187 214 231 218 191 202 206 323 292 185 174 186 164 166 179 94 314 306 232 229 205 195 208 222 229 231 212 208 222 230 245 245 226 225 257 242 225 233 244 254 259 267 274 257 262 283 83 118 196 214 203 193 178 181 182 179 185 188 186 188 189 188 186 186 188
334 330 323 325 331 329 331 341 327 329 6 319 321 330 325 311 323 328 331 46 10 234 183 180 175 190 189 140 141 144 10 272 162 145 167 152 139 162 177 270 309 266 271 30 39 243 239 233 233 224 211 209 217 234 241 224 213 249 248 241 246 252 257 259 260 248 235 253 308 70 121 138 188 213 204 188 182 178 183 190 189 188 190 192 192 189 187 187
337 328 322 328 332 321 320 334 350 12 15 317 322 338 342 336 327 323 29 82 26 191 169 198 162 165 174 134 180 190 219 250 197 124 205 218 177 144 168 230 214 252 280 62 287 269 274 262 248 238 234 229 216 219 228 221 217 240 245 252 259 258 261 265 254 244 256 277 294 327 128 125 217 212 196 192 183 179 191 194 191 191 191 193 194 192 190 190
338 327 324 332 331 311 313 325 324 342 348 324 332 345 353 342 326 323 103 85 95 196 184 183 167 171 178 170 220 221 236 238 187 175 216 225 214 198 218 222 210 284 282 158 221 267 260 258 270 296 285 245 224 225 223 215 223 236 238 250 263 265 270 285 195 227 259 255 252 263 160 138 273 226 181 183 187 189 197 196 196 196 193 193 193 193 191 191
339 330 330 340 343 320 321 329 298 312 340 341 342 340 332 329 334 70 63 74 136 225 229 187 191 171 164 95 276 241 235 219 181 172 207 217 210 233 286 256 243 345 318 8 256 268 283 288 278 270 251 246 257 267 244 215 221 240 244 249 264 284 302 360 68 92 55 265 248 248 193 140 278 252 181 180 193 193 194 195 199 199 196 195 193 193 192 191
343 340 343 4 28 18 12 347 297 320 338 331 333 338 337 339 75 88 63 359 107 308 281 209 249 179 159 155 241 239 231 232 167 146 195 337 18 336 7 360 346 25 356 350 336 300 311 321 309 253 258 275 286 292 289 247 217 224 230 231 262 298 330 345 1 45 145 265 250 231 103 117 164 262 204 194 199 192 188 190 193 195 196 196 194 194 193 192
353 1 24 45 51 44 34 24 326 329 329 313 334 346 355 49 37 65 47 342 341 285 286 237 229 181 161 166 177 200 175 36 49 88 91 70 58 31 40 33 348 34 360 326 332 332 314 298 317 267 259 343 345 305 311 316 222 195 187 113 204 287 322 300 315 318 202 255 251 173 65 101 215 250 209 198 205 200 198 196 189 189 193 194 195 194 193 192
13 45 65 55 51 47 38 41 44 26 332 332 351 358 43 85 38 357 3 356 9 252 298 318 319 42 69 42 24 199 84 38 30 62 70 76 80 57 46 28 12 69 153 330 10 357 326 306 346 351 349 13 15 15 341 324 331 238 184 137 150 174 116 247 268 287 237 270 268 143 89 258 264 264 208 195 199 200 209 211 197 192 191 193 195 194 192 192
50 67 48 33 32 36 33 39 47 57 33 4 7 23 62 70 30 357 20 8 344 327 341 344 325 356 51 30 247 78 48 19 11 48 53 49 51 36 33 20 12 25 116 65 47 13 355 301 355 27 334 345 11 32 314 284 303 281 204 144 140 165 161 194 214 218 229 276 291 44 91 216 215 244 214 189 190 195 204 211 205 200 198 196 196 194 191 192
58 45 24 15 17 31 32 35 38 39 20 10 22 61 58 54 354 345 358 329 329 346 346 345 348 24 3 326 214 60 55 8 360 50 63 63 53 22 23 17 5 6 43 59 9 335 22 257 298 358 335 358 7 343 325 332 326 281 191 111 148 188 161 160 194 192 175 269 301 349 210 218 209 260 259 190 182 191 201 204 199 201 205 201 197 194 193 193
33 22 26 25 22 27 26 30 40 36 13 14 44 65 54 74 343 320 320 315 329 343 338 353 26 37 345 334 16 32 47 57 26 65 82 80 58 25 22 18 4 10 44 80 53 346 10 278 297 335 9 57 3 329 345 33 344 290 22 39 231 199 139 134 249 233 123 162 275 271 256 286 307 294 289 262 205 190 194 199 198 199 201 197 194 195 196 195
19 20 36 38 28 23 29 47 63 45 14 27 67 61 255 88 7 335 325 333 343 354 12 38 21 15 16 12 4 356 24 37 28 53 71 67 40 8 359 2 7 9 9 45 126 148 357 279 313 357 18 13 353 336 21 55 27 30 341 307 283 233 118 120 183 335 66 162 267 276 256 288 317 291 294 290 267 236 193 191 202 202 195 191 193 196 197 196
355 353 19 31 19 8 24 49 48 32 19 34 51 325 313 49 27 41 11 351 350 12 44 70 12 20 47 33 353 353 15 25 15 40 53 54 28 350 352 355 356 0 5 21 47 78 55 298 312 31 26 347 353 360 10 4 12 39 298 310 325 359 45 34 143 196 217 192 267 293 284 267 229 242 284 285 267 261 233 189 196 203 192 189 194 196 198 198
348 345 9 18 5 351 19 31 4 355 37 34 344 331 25 55 46 67 45 13 2 43 53 45 23 33 46 52 18 356 18 35 31 53 58 48 16 330 358 5 339 358 22 45 45 314 35 15 281 7 27 351 351 26 17 341 350 2 1 353 354 334 291 300 218 179 169 193 230 306 321 288 246 262 298 294 276 269 264 216 189 195 190 188 193 196 197 198
353 0 22 12 356 329 343 335 321 332 78 161 231 22 49 37 15 43 43 31 17 38 45 40 37 36 26 41 41 7 12 33 45 66 47 41 102 333 356 8 330 347 29 50 45 351 27 43 287 312 5 15 34 35 22 350 337 345 360 11 3 347 336 318 272 204 140 165 182 225 273 280 309 335 338 328 321 297 272 251 201 192 191 189 193 195 195 196
9 14 23 24 35 1 336 308 297 232 137 258 265 9 40 47 24 26 34 37 38 27 28 58 62 51 33 29 33 16 9 28 56 73 39 41 98 19 359 17 8 356 20 35 35 13 9 58 316 321 338 5 74 12 330 306 290 333 34 24 8 355 357 357 324 319 18 178 181 183 228 265 7 2 350 342 339 328 298 266 215 190 189 191 194 196 195 194
18 15 5 7 343 316 335 323 296 191 165 22 91 62 44 47 38 32 30 31 34 23 22 43 57 53 52 34 28 25 27 40 53 66 70 57 76 77 33 39 47 66 70 49 345 347 1 70 357 314 287 281 277 271 300 331 1 72 57 28 5 1 10 7 322 316 330 313 279 195 232 237 17 8 358 349 341 343 348 333 206 192 190 194 197 195 194 194
12 14 23 23 6 339 351 351 346 354 14 41 72 67 58 54 40 43 38 27 24 19 18 28 29 33 42 31 32 30 32 53 54 55 76 60 61 70 60 57 59 63 69 85 314 337 356 48 2 314 284 300 299 242 85 51 43 42 29 11 1 356 348 332 296 285 309 345 352 344 276 271 340 360 359 350 344 353 10 23 34 158 180 188 194 192 191 193
5 13 33 42 47 47 48 14 353 17 16 27 47 53 59 60 38 42 52 30 16 14 12 17 28 35 27 21 44 41 36 55 57 42 39 40 46 38 35 48 66 65 66 101 346 342 354 58 38 358 331 344 5 16 7 16 23 18 342 345 347 342 340 338 327 321 349 37 26 6 284 288 318 341 354 351 351 0 13 22 32 39 58 92 118 161 184 191
9 8 15 33 54 60 58 52 49 55 21 19 35 27 28 49 44 50 65 44 27 30 38 25 35 49 42 30 48 47 40 50 56 39 36 26 19 17 16 25 47 65 77 74 59 41 50 86 85 82 65 318 342 6 332 326 336 339 331 335 338 341 343 342 343 354 345 353 19 37 249 294 314 329 352 354 354 5 10 17 30 37 42 53 63 78 110 153
24 16 357 16 43 50 51 52 55 58 27 24 39 13 9 22 36 37 43 42 34 38 50 39 31 43 44 33 44 42 31 40 46 49 54 34 9 360 7 15 25 36 63 63 49 51 102 79 116 140 154 207 222 226 257 285 306 320 329 333 335 333 332 334 348 337 313 322 336 225 239 313 321 323 344 358 356 8 13 13 23 31 34 40 50 62 72 80
39 44 3 359 16 24 34 50 55 50 34 49 57 5 26 37 15 20 26 32 34 34 47 46 33 34 35 29 43 31 15 32 38 29 33 32 21 354 360 9 23 31 42 53 44 56 89 23 351 164 194 227 230 260 291 313 320 323 328 328 329 325 320 321 315 298 311 336 310 270 301 324 317 322 344 3 360 9 17 12 16 24 29 32 40 52 59 64
45 41 19 19 6 333 357 48 65 54 35 45 54 25 39 42 27 22 21 27 34 31 34 45 33 30 30 28 44 24 12 30 33 14 11 12 14 11 360 357 17 23 23 34 46 60 99 317 319 340 319 303 322 332 325 327 320 319 322 320 322 320 310 307 306 299 307 307 275 288 319 318 315 337 353 2 8 19 31 25 21 21 25 29 32 41 47 50
44 25 11 25 27 321 359 49 70 61 40 35 44 31 43 47 37 33 24 22 34 32 40 54 28 22 27 28 44 43 24 30 16 360 5 360 357 17 3 332 358 14 16 25 35 44 82 330 329 350 340 331 340 336 327 329 322 316 319 318 320 318 306 303 298 291 290 273 264 288 318 312 317 346 346 350 14 27 39 39 30 20 23 29 28 31 37 39
52 37 359 7 12 14 41 58 65 62 44 37 41 15 27 49 43 39 41 37 28 23 40 53 30 18 24 30 48 62 46 56 34 352 353 356 357 12 16 344 343 360 8 11 7 37 86 309 331 17 360 324 326 332 329 328 324 321 322 318 314 314 312 308 297 293 303 290 279 306 332 317 316 349 14 18 27 34 37 40 35 21 21 28 25 23 30 32
70 50 13 357 1 10 40 59 55 64 49 25 23 359 14 39 36 41 50 39 41 46 34 40 41 24 18 30 41 32 11 19 11 344 333 325 325 317 312 342 349 349 357 351 334 25 103 261 319 53 19 294 308 333 328 330 334 329 317 293 290 303 329 325 320 340 349 313 299 321 342 286 303 347 20 27 36 46 42 41 41 27 22 28 23 17 25 27
81 62 41 55 49 7 26 56 44 58 68 30 35 35 33 47 44 50 53 19 31 42 29 30 50 45 21 29 21 359 359 3 352 340 331 318 315 306 289 291 301 300 299 324 309 278 159 150 149 98 112 279 315 340 335 346 347 316 280 270 299 324 338 329 332 360 9 343 317 274 259 267 300 353 30 21 27 50 49 44 46 35 24 25 21 18 25 26